sat.trackr.live / text

‹ back to catalog

STARLINK-2001

NORAD 47596 · 2021-009BA

PAYLOAD ACTIVE UNKNOWN

§ Identity

Operator
Country
US
Launch date
2021-02-04
Launch site
AFETR
Launch vehicle
Mass (kg)
RCS (m²)

Purposes: comms

External: N2YO · Heavens-Above · Gunter

§ Orbital elements

Epoch: 2026-09-13T05:43:17.850720Z

Period
89.50 min
Inclination
53.0253°
Eccentricity
0.0004337
Mean motion
16.08897110 rev/d
Perigee alt
247.0 km
Apogee alt
252.7 km
Semi-major
6,628.0 km
B*
8.2557e-4
RAAN
171.3470°
Arg perigee
147.2154°
Mean anomaly
212.9149°
Rev number
31,029

§ Raw data

STARLINK-20011 47596U 21009BA  26256.23840105  .00740695  30239-3  82557-3 0  99982 47596  53.0253 171.3470 0004337 147.2154 212.9149 16.08897110310299

JSON: /api/v1/satellites/47596 · /tle

For live sub-satellite position, see the globe view (requires WebGL).

§ Visibility from observer

Set your observer location to see the next 7 days of passes ≥ 10°. The values pass through the URL so the page stays shareable.

No JS? Fill the form by hand. The geolocation button needs JavaScript.